Regional Weather Roundup
Issued by NWS

Home | Current Version | Previous Version | Graphics & Text | Print | Product List | Glossary On
Versions: 1 2 3 4 5 6 7 8 9 10 11 12 13 14 15 16 17 18 19 20 21 22 23 24 25 26 27 28 29 30 31 32 33 34 35 36 37 38 39 40 41 42 43 44 45 46 47 48 49 50
000
ASUS43 KMKX 271221
RWRWI

WISCONSIN REGIONAL WEATHER ROUNDUP
NATIONAL WEATHER SERVICE MILWAUKEE/SULLIVAN WI
700 AM CDT TUE JUN 27 2017

NOTE: "FAIR" INDICATES FEW OR NO CLOUDS BELOW 12,000 FEET WITH NO
SIGNIFICANT WEATHER AND/OR OBSTRUCTIONS TO VISIBILITY.

WIZ001-002-006>008-014>016-023>028-271300-
NORTHWEST WISCONSIN

CITY           SKY/WX    TMP DP  RH WIND       PRES   REMARKS
SUPERIOR ARPT  NOT AVBL
ASHLAND        SUNNY     53  47  79 SW8       30.04S
6HR MIN TEMP:  48; 6HR MAX TEMP:  53;

HAYWARD        SUNNY     50  47  89 S5        30.07S
6HR MIN TEMP:  44; 6HR MAX TEMP:  54;

SIREN          SUNNY     51  48  90 CALM      30.07S
6HR MIN TEMP:  44; 6HR MAX TEMP:  51;

CUMBERLAND     SUNNY     50  46  87 CALM      30.08S
RICE LAKE      SUNNY     51  49  92 CALM      30.09S
6HR MIN TEMP:  46; 6HR MAX TEMP:  51;

CHETEK         SUNNY     50  49  97 CALM      30.09R
6HR MIN TEMP:  45; 6HR MAX TEMP:  50;

LADYSMITH      SUNNY     51  50  94 CALM      30.09S
6HR MIN TEMP:  46; 6HR MAX TEMP:  54;

EAU CLAIRE     SUNNY     53  49  86 SW3       30.09R
6HR MIN TEMP:  48; 6HR MAX TEMP:  54;

MENOMONIE      SUNNY     55  50  81 CALM      30.09F
6HR MIN TEMP:  47; 6HR MAX TEMP:  53;

NEW RICHMOND   SUNNY     54  47  79 CALM      30.09S
6HR MIN TEMP:  48; 6HR MAX TEMP:  54;

OSCEOLA        SUNNY     50  50 100 CALM      30.11S
6HR MIN TEMP:  45; 6HR MAX TEMP:  50;

$$

WIZ003>005-009-010-017-018-271300-
NORTH CENTRAL WISCONSIN

CITY           SKY/WX    TMP DP  RH WIND       PRES   REMARKS
MANITOWISH WTR SUNNY     50  50 100 CALM      30.05S
6HR MIN TEMP:  41; 6HR MAX TEMP:  50;

ARBOR VITAE    SUNNY     52  49  90 CALM      30.05R
6HR MIN TEMP:  46; 6HR MAX TEMP:  52;

WOODRUFF       SUNNY     52  49  90 CALM      30.05R
6HR MIN TEMP:  46; 6HR MAX TEMP:  52;

RHINELANDER    SUNNY     51  50  96 W7        30.06R
6HR MIN TEMP:  43; 6HR MAX TEMP:  51;

EAGLE RIVER    SUNNY     51  51 100 CALM      30.04S
6HR MIN TEMP:  43; 6HR MAX TEMP:  51;

LAND O LAKES   SUNNY     53  50  87 CALM      30.06R
6HR MIN TEMP:  43; 6HR MAX TEMP:  51;

PHILLIPS       SUNNY     52  49  89 CALM      30.06S
6HR MIN TEMP:  47; 6HR MAX TEMP:  51;

TOMAHAWK       NOT AVBL
MEDFORD        SUNNY     52  46  82 W5        30.08S
6HR MIN TEMP:  49; 6HR MAX TEMP:  52;

MERRILL        SUNNY     52  49  92 NW3       30.07S
6HR MIN TEMP:  41; 6HR MAX TEMP:  49;

$$

WIZ029-030-035-036-043>047-271300-
CENTRAL WISCONSIN

CITY           SKY/WX    TMP DP  RH WIND       PRES   REMARKS
WAUSAU         SUNNY     53  48  83 NW9       30.06R
6HR MIN TEMP:  47; 6HR MAX TEMP:  53;

MOSINEE        MOSUNNY   54  48  82 W7        30.08R
MARSHFIELD     SUNNY     53  46  77 W7        30.08R
6HR MIN TEMP:  49; 6HR MAX TEMP:  53; 6HR PCP: TRACE;

STEVENS POINT  SUNNY     49  48  99 S3        30.09S
6HR MIN TEMP:  39; 6HR MAX TEMP:  50;

WAUPACA        SUNNY     57  50  78 W6        30.09S
6HR MIN TEMP:  52; 6HR MAX TEMP:  56;

WAUTOMA        SUNNY     55  49  80 W6        30.10S
6HR MIN TEMP:  44; 6HR MAX TEMP:  55;

WISC RAPIDS    SUNNY     53  48  83 W5        30.10S
6HR MIN TEMP:  46; 6HR MAX TEMP:  53;

CAMP DOUGLAS   MOSUNNY   50  48  93 CALM      30.09S
$$

WIZ011>013-019>022-031-037>040-048>050-271300-
NORTHEAST WISCONSIN

CITY           SKY/WX    TMP DP  RH WIND       PRES   REMARKS
ANTIGO         SUNNY     49  48  97 CALM      30.07R
6HR MIN TEMP:  41; 6HR MAX TEMP:  49;

SHAWANO        PTSUNNY   54  48  81 CALM      30.06R
6HR MIN TEMP:  50; 6HR MAX TEMP:  54;

OCONTO         SUNNY     52  49  90 W5        30.04S
6HR MIN TEMP:  45; 6HR MAX TEMP:  52;

STURGEON BAY     N/A     55  52  89 MISG        N/A
6HR MIN TEMP:  50; 6HR MAX TEMP:  55;

GREEN BAY      SUNNY     54  51  90 W8        30.06R
6HR MIN TEMP:  49; 6HR MAX TEMP:  54;

MANITOWOC        N/A     56  48  74 W8        30.06S
APPLETON       MOSUNNY   52  48  87 W10       30.06R
CLINTONVILLE   MOSUNNY   52  46  82 W5        30.07R
OSHKOSH        SUNNY     54  48  80 W7        30.07R
6HR MIN TEMP:  50; 6HR MAX TEMP:  54;

$$

WIZ032>034-041-042-053>061-271300-
SOUTHWEST WISCONSIN

CITY           SKY/WX    TMP DP  RH WIND       PRES   REMARKS
LA CROSSE      SUNNY     58  51  78 S8        30.12R
6HR MIN TEMP:  54; 6HR MAX TEMP:  58;

SPARTA         SUNNY     46  45  95 CALM      30.12S
6HR MIN TEMP:  38; 6HR MAX TEMP:  46;

VIROQUA        SUNNY     52  48  86 SW6       30.13R
6HR MIN TEMP:  49; 6HR MAX TEMP:  54;

BOSCOBEL       FOG       51  50  96 SW3       30.14S VSB 1/4
6HR MIN TEMP:  46; 6HR MAX TEMP:  51;

PRAIRIE DU CHI SUNNY     51  48  92 CALM      30.14R
6HR MIN TEMP:  47; 6HR MAX TEMP:  51;

PLATTEVILLE    SUNNY     53  50  91 CALM      30.15R
6HR MIN TEMP:  48; 6HR MAX TEMP:  53;

$$

WIZ056-057-062-063-064-067-068-271300-
SOUTH CENTRAL WISCONSIN

CITY           SKY/WX    TMP DP  RH WIND       PRES   REMARKS
REEDSBURG      SUNNY     51  50  97 CALM      30.11S
6HR MIN TEMP:  46; 6HR MAX TEMP:  51;

BARABOO/DELLS  MOSUNNY   52  49  90 CALM      30.11S
6HR MIN TEMP:  45; 6HR MAX TEMP:  52;

LONE ROCK      FOG       50  49  96 CALM      30.13S VSB 1
6HR MIN TEMP:  45; 6HR MAX TEMP:  50;

MINERAL POINT  SUNNY     54  50  87 CALM      30.14R
MADISON        SUNNY     55  47  74 CALM      30.11R
6HR MIN TEMP:  47; 6HR MAX TEMP:  55;

MIDDLETON      SUNNY     55  50  81 W5        30.12S
6HR MIN TEMP:  46; 6HR MAX TEMP:  55;

WATERTOWN      NOT AVBL
MONROE         SUNNY     55  45  67 W7        30.13R
JANESVILLE     SUNNY     54  52  94 CALM      30.11S
$$

WIZ051-052-058>065-066-070>072-271300-
SOUTHEAST WISCONSIN

CITY           SKY/WX    TMP DP  RH WIND       PRES   REMARKS
MILWAUKEE      SUNNY     59  48  67 W7        30.10R
6HR MIN TEMP:  54; 6HR MAX TEMP:  59;

WAUKESHA       SUNNY     54  45  71 W9        30.11R
MILWAUKEE/TIMM SUNNY     54  45  71 W7        30.10S
RACINE         SUNNY     56  47  71 W6        30.12R
6HR MIN TEMP:  50; 6HR MAX TEMP:  56;

KENOSHA        SUNNY     54  49  83 SW3       30.11R
6HR MIN TEMP:  46; 6HR MAX TEMP:  54;

FOND DU LAC    SUNNY     54  47  77 W3        30.09R
6HR MIN TEMP:  49; 6HR MAX TEMP:  54;

SHEBOYGAN      SUNNY     55  52  89 W5        30.07R
6HR MIN TEMP:  46; 6HR MAX TEMP:  55;

WEST BEND      SUNNY     54  50  87 W6        30.09R
JUNEAU         SUNNY     52  48  88 CALM      30.11S
6HR MIN TEMP:  45; 6HR MAX TEMP:  52;

$$

LSZ147-162-271300-
LAKE SUPERIOR

STATION/POSITION TIME  TEMP    WIND        PRES    WAVE
                       AIR SEA DIR/SP/G            HT/PER
                 (UTC) (F)     (DEG/KT/KT) (MB)    (FT/S)
W MID LAKE BUOY  1150   43 39  230/  8/  8 1016.4R   1
DEVILS ISLAND    1200   54     220/  9/ 11 1016.8R
SAXON HARBOR     1140   56     190/  5/  8 1016.6R
$$

LMZ867-665-643>646-271300-
LAKE MICHIGAN

STATION/POSITION TIME  TEMP    WIND        PRES    WAVE
                       AIR SEA DIR/SP/G            HT/PER
                 (UTC) (F)     (DEG/KT/KT) (MB)    (FT/S)
CHAMBERS ISLAND  1130   55     260/  4/  7 1016.6R
S GREEN BAY BUOY 1200   56     290/ 10/ 12 1016.9
N MID LAKE BUOY  1150   56 54  290/  6/  8 1016.7R   1/ 3
NORTHPORT PIER   1140   56     290/  5/ 10 1016.3S
KEWAUNEE LAKESHO 1154   54     290/  5/  8 1016.9R
SHEBOYGAN LAKESH 1200   56     270/ 12/ 14 1018.0R
PORT WASHINGTON  1130   57     280/  5/  9 1019.3S
ATWATER BUOY     1109   56 56



USA.gov is the U.S. government's official web portal to all federal, state and local government web resources and services.